AirNav   Phillips 66 Aviation Fuel
 
 336 users online  

2Y1 Drake Airport
Radcliffe, Iowa, USA

GOING TO RADCLIFFE?


FAA INFORMATION EFFECTIVE 11 OCTOBER 2018

Location

FAA Identifier: 2Y1
Lat/Long: 42-19-03.0500N / 093-24-54.5850W
42-19.050833N / 093-24.909750W
42.3175139 / -93.4151625
(estimated)
Elevation: 1179 ft. / 359.4 m (surveyed)
Variation: 04E (1985)
From city: 1 mile E of RADCLIFFE, IA
Time zone: UTC -5 (UTC -6 during Standard Time)
Zip code: 50230

Airport Operations

Airport use: Open to the public
Activation date: 12/1959
Control tower: no
ARTCC: MINNEAPOLIS CENTER
FSS: FORT DODGE FLIGHT SERVICE STATION
NOTAMs facility: FOD (NOTAM-D service available)
Attendance: UNATNDD
Wind indicator: yes
Segmented circle: no
Lights: ACTVT LIRL RWY 09/27 - 122.8.

Airport Communications

CTAF/UNICOM: 122.8
WX AWOS-3 at IFA (11 nm NE): 120.425 (641-648-2469)

Nearby radio navigation aids

VOR radial/distance  VOR name  Freq  Var
JWJr298/25.7ELMWOOD VOR/DME109.4001E
TNUr334/34.8NEWTON VOR/DME112.5003E

 
NDB name  Hdg/Dist  Freq  Var  ID
WEBSTER CITY107/21.532303EEBS . -... ...
CLARION146/29.938703ECAV -.-. .- ...-

Airport Services

Parking: tiedowns
Airframe service: NONE
Powerplant service: NONE
Bottled oxygen: NONE
Bulk oxygen: NONE

Runway Information

Runway 9/27

Dimensions: 2480 x 90 ft. / 756 x 27 m
Surface: turf, in fair condition
Runway edge lights: non-standard
NSTD LIRL; SOLID CLEAR; THLD LGTS SOLID GREEN.
RUNWAY 9  RUNWAY 27
Latitude: 42-19.051667N42-19.050000N
Longitude: 093-25.184833W093-24.634667W
Elevation: 1173.0 ft.1172.0 ft.
Traffic pattern: leftleft
Runway heading: 087 magnetic, 091 true267 magnetic, 271 true
Obstructions: 46 ft. trees, 285 ft. from runway, 80 ft. right of centerline, 6:1 slope to clearnone

Airport Ownership and Management from official FAA records

Ownership: Privately-owned
Owner: R. DRAKE
303 EAST ST.
RADCLIFFE, IA 50230
Phone 515-899-2121
Manager: R. R. DRAKE
303 EAST ST.
RADCLIFFE, IA 50230
Phone 515-899-2169

Airport Operational Statistics

Aircraft based on the field: 3
Single engine airplanes: 3
    
Aircraft operations: 200/year *
100% local general aviation
* for 12-month period ending 08 May 2007

Additional Remarks

WINTER MONTHS CALL 515-899-2169 FOR ARPT CONDITIONS.

Instrument Procedures

There are no published instrument procedures at 2Y1.

Some nearby airports with instrument procedures:

KIFA - Iowa Falls Municipal Airport (11 nm NE)
KEBS - Webster City Municipal Airport (21 nm W)
KAMW - Ames Municipal Airport (22 nm SW)
KBNW - Boone Municipal Airport (25 nm SW)
KMIW - Marshalltown Municipal Airport (25 nm SE)
 
Loc | Ops | Rwys | IFR | FBO | Links
Com | Nav | Svcs | Stats | Notes


 
Area around 2Y1 (Drake Airport)
 
Road maps at: MapQuest Bing Google
 
Aerial photo
No photo
 
Sectional chart

 
Airport distance calculator
Flying to Drake Airport? Find the distance to fly.

From to 2Y1

Sunrise and sunset
Times for 21-Oct-2018
 Local
(UTC-5)
 Zulu
(UTC)
Morning civil twilight07:0612:06
Sunrise07:3512:35
Sunset18:2223:22
Evening civil twilight18:5123:51

Current date and time
Zulu (UTC)  21-Oct-2018 08:42:40
Local (UTC-5)  21-Oct-2018 03:42:40
 
METAR
KIFA 
11nm NE 
210815Z AUTO 22003KT 10SM CLR M04/M05 A3036 RMK AO2 T10361052
KEBS 
21nm W 
210815Z AUTO 19005KT 10SM CLR M04/M05 A3033 RMK AO2
KAMW 
22nm SW 
210753Z AUTO 00000KT 10SM CLR M03/M06 A3036 RMK AO2 SLP288 T10331056 $
TAF
KFOD 
36nm W 
210520Z 2106/2206 VRB03KT P6SM SKC FM211200 19007KT P6SM SKC FM211500 21015G22KT P6SM SKC FM220000 21005KT P6SM SCT250
NOTAMs
Click for the latest NOTAMs
NOTAMs are issued by the DoD/FAA and will open in a separate window not controlled by AirNav.

 

 
 

Would you like to see your business listed on this page?

 If your business provides an interesting product or service to pilots, flight crews, aircraft, or users of the Drake Airport, you should consider listing it here.  To start the listing process, click on the button below
 
Add a business
 

Other Pages about Drake Airport

Page from the Iowa Airport Directory
 
Update a link
 
Copyright © AirNav, LLC. All rights reserved. Privacy Policy  Contact